User: anonymous   Login
Location: Absher
(46.5583°N, 107.9840°W)
Time: 07:29:04
(UTC+00:00)
Language:

Tiangong - Orbit

View from above orbital plane
View from above orbital plane
View from above satellite
View from above satellite

Ground track
Ground track

The orbit data is extracted from the following two-line orbital elements,

1 48274U 21035A   24104.32747639  .00001344  00000-0  17527-4 0  9996
2 48274  41.4685 119.3676 0007721 347.7020  12.3631 15.63991685168945
Epoch (UTC): 13 April 2024 07:51:33
Eccentricity: 0.0007721
inclination: 41.4685°
perigee height: 371 km
apogee height: 381 km
right ascension of ascending node: 119.3676°
argument of perigee: 347.7020°
revolutions per day: 15.63991685
mean anomaly at epoch: 12.3631°
orbit number at epoch: 16894

The dashed part of the orbit path shows where the satellite is in the earth's shadow,  

DLR